Regional Weather Roundup
Issued by NWS Cleveland, OH

Home | Current Version | Previous Version | Graphics & Text | Print | Product List | Glossary On
Versions: 1 2 3 4 5 6 7 8 9 10 11 12 13 14 15 16 17 18 19 20 21 22 23 24 25 26 27 28 29 30 31 32 33 34 35 36 37 38 39 40 41 42 43 44 45 46 47 48 49 50
052
ASUS41 KCLE 290010
RWRCLE
OHIO REGIONAL WEATHER ROUNDUP
NATIONAL WEATHER SERVICE WILMINGTON, OH
800 PM EDT SUN MAY 28 2017

NOTE: "FAIR" INDICATES FEW OR NO CLOUDS BELOW 12,000 FEET WITH NO
SIGNIFICANT WEATHER AND/OR OBSTRUCTIONS TO VISIBILITY.

OHZ001>008-015>018-024>027-034-035-043-044-290100-
   NORTHWEST OHIO

CITY           SKY/WX    TMP DP  RH WIND       PRES   REMARKS
DEFIANCE       MOCLDY    66  63  90 S8        29.72R
FINDLAY        RAIN      63  57  81 S9        29.70S
TOLEDO EXPRESS FAIR      64  60  87 SE3       29.68F
TOLEDO EXEC    MOCLDY    65  63  93 E12       29.71R
LIMA           TSTM      64  61  90 SW16      29.75S
$$

OHZ009>014-019>023-028>033-038-089-290100-
   NORTHEAST OHIO

CITY           SKY/WX    TMP DP  RH WIND       PRES   REMARKS
CLE-HOPKINS    MOCLDY    65  62  90 N6        29.77R
CLE-LAKEFRONT  LGT RAIN  64  61  90 CALM      29.75R
CUY CO. ARPT   CLOUDY    66  63  88 NW8       29.75S
LORAIN-ELYRIA  FAIR      65  59  81 NE6       29.75R
ASHTABULA      LGT RAIN  64  61  90 NE5       29.72F FOG
AKRON-CANTON   FAIR      75  61  61 SW9       29.73R
WOOSTER        MOCLDY    74  61  63 W10       29.74R
MANSFIELD      CLOUDY    72  62  71 SW7       29.74R
YOUNGSTOWN     TSTM      64  59  83 NW9       29.75R
$$

OHZ042-051>053-060>062-070>072-077>081-290100-
  SOUTHWEST OHIO

CITY           SKY/WX    TMP DP  RH WIND       PRES   REMARKS
CINC-COVINGTON MOCLDY    70  63  78 SW6       29.81R
CINC-LUNKEN    MOCLDY    72  64  76 SW10      29.80R
HAMILTON       FAIR      72  64  76 SW6       29.80R
DAYTON         MOCLDY    71  61  70 SW13      29.78R
WRIGHT-PAT AFB PTCLDY    72  63  73 SW13      29.77R
DAYTON GENERAL FAIR      71  61  70 SW8       29.78R
WILMINGTON     FAIR      71  63  75 SW13      29.78S
$$

OHZ036-037-039>041-045>050-054>059-063>069-073>076-082>088-290100-
  CENTRAL AND SOUTHEAST OHIO

CITY           SKY/WX    TMP DP  RH WIND       PRES   REMARKS
COLUMBUS       FAIR      74  60  61 W16G25    29.76R
OSU AIRPORT    MOCLDY    74  61  63 SW16G22   29.76R
BOLTON FIELD   CLOUDY    73  62  68 SW9       29.78R
RICKENBACK AFB CLOUDY    74  60  63 W14G20    29.77R
NEWARK         MOCLDY    74  61  63 SW8       29.75R
MARION         FAIR      73  61  65 SW14      29.75R
LANCASTER      CLOUDY    75  63  66 W9        29.78R
ZANESVILLE     FAIR      76  63  64 SW6       29.76R
NEW PHILLY     FAIR      76  64  66 SW6       29.75R
$$




USA.gov is the U.S. government's official web portal to all federal, state and local government web resources and services.